Location: Ferchesar
(52.6477°N, 12.4298°E)
Time: 11:43:51
(UTC+01:00)

Altair - Pass Details

Date: 10 December 2021
Orbit: 1501 x 1683 km, 47.2° (Epoch: 20 January)

Event Time Altitude Azimuth Distance (km) Brightness Sun altitude
Rises 17:57:00 0° 273° (W) 4,750 11.5 -17.2°
Reaches altitude 10° 18:00:10 10° 270° (W) 3,741 10.7 -17.6°
Maximum altitude 18:09:18 59° 194° (SSW) 1,726 7.9 -19.0°
Enters shadow 18:16:49 16° 121° (ESE) 3,221 8.8 -20.1°
